Content
SEND FEEDBACK

Daily
Averages
Monthly
Summary
United States of America

INDIAN RIVER, FLORIDA


Home > North America > United States > Florida
Elevation: 58 feet     Latitude: 27 35N     Longitude: 080 50W

WEATHER
 
SELECT A DAY
Number of Records: 183,205;   Date Range: 12/11/06 - 8/28/14
 
SHARE

PRINT THIS DATA

[ ← Previous Day ]
WEATHER ALMANAC - JANUARY 31, 2013
[ Next Day → ]
[ °C ]   °F
Weather ElementAverageHighLow
Temperature60.4 °F69.8 °F (12:35 am)42.8 °F (10:35 pm)
Dewpoint52.3 °F68 °F (12:35 am)37.4 °F (4:15 pm)
Humidity77.9 %100 % (5:35 am)33 % (4:15 pm)
Barometer30.10 in30.22 in (10:35 pm)29.95 in (3:55 am)
Wind Speed7 mph13.8 mph (5:15 am)
Wind Gust23 mph (5:15 am)
Weather ElementAverage
Visibility9.2 mi
Wind DirectionSW (226.6 °)

Weather ElementTotal
Precipitation0.13 in
Heating Degree Days8.7 (Base 65)
Growing Degree Days6.3 (Base 50)
Averaged from 71 records on January 31, 2013
WEATHER CONDITIONS BREAKOUT
WIND DIRECTION BREAKOUT
WEATHER BY HOUR - JANUARY 31, 2013
[ °C ]   °F
Local TimeTemperatureDewpointHumidityBarometerVisibilityWind DirectionWind SpeedGust SpeedPrecipitationEventsConditions
12:35 AM69.8 °F68.0 °F94 %29.99 in10.0 miSSE (160°)9.2 mphClear
12:55 AM69.8 °F68.0 °F94 %29.98 in10.0 miSouth (170°)10.4 mph17.3 mphClear
1:15 AM69.8 °F68.0 °F94 %29.98 in10.0 miSouth (170°)10.4 mphClear
1:35 AM69.8 °F68.0 °F94 %29.98 in10.0 miSouth (170°)9.2 mphClear
1:55 AM69.8 °F68.0 °F94 %29.97 in10.0 miSouth (170°)9.2 mphClear
2:15 AM69.8 °F68.0 °F94 %29.97 in10.0 miSouth (180°)8.1 mphClear
2:35 AM69.8 °F68.0 °F94 %29.96 in10.0 miSouth (180°)10.4 mphScattered Clouds
2:55 AM69.8 °F68.0 °F94 %29.97 in10.0 miSouth (180°)9.2 mphMostly Cloudy
3:15 AM69.8 °F68.0 °F94 %29.96 in10.0 miSouth (180°)10.4 mphScattered Clouds
3:35 AM69.8 °F68.0 °F94 %29.96 in10.0 miSouth (180°)9.2 mphClear
3:55 AM69.8 °F68.0 °F94 %29.95 in10.0 miSouth (180°)12.7 mphScattered Clouds
4:15 AM69.8 °F68.0 °F94 %29.95 in10.0 miSouth (180°)11.5 mphMostly Cloudy
4:35 AM69.8 °F68.0 °F94 %29.96 in10.0 miSouth (190°)10.4 mphOvercast
4:55 AM69.8 °F68.0 °F94 %29.97 in10.0 miWest (270°)12.7 mphOvercast
5:15 AM62.6 °F60.8 °F94 %30.00 in5.0 miWNW (300°)13.8 mph23.0 mphOvercast
5:35 AM60.8 °F60.8 °F100 %30.01 in5.0 miNW (310°)10.4 mphOvercast
5:55 AM60.8 °F59.0 °F94 %30.03 in5.0 miNW (310°)11.5 mphOvercast
6:15 AM59.0 °F59.0 °F100 %30.04 in5.0 miNNW (330°)9.2 mph17.3 mphOvercast
6:35 AM57.2 °F55.4 °F94 %30.05 in5.0 miNW (320°)10.4 mph0.02 inOvercast
6:55 AM57.2 °F55.4 °F94 %30.06 in4.0 miNW (320°)9.2 mph0.02 inOvercast
7:15 AM57.2 °F55.4 °F94 %30.07 in4.0 miNW (320°)9.2 mphOvercast
7:35 AM57.2 °F57.2 °F100 %30.08 in5.0 miNorth (350°)5.8 mphOvercast
7:55 AM57.2 °F55.4 °F94 %30.10 in5.0 miNNW (330°)10.4 mphOvercast
8:15 AM57.2 °F55.4 °F94 %30.10 in3.0 miNNW (340°)10.4 mph0.01 inOvercast
8:35 AM57.2 °F55.4 °F94 %30.11 in10.0 miNNW (330°)6.9 mph0.01 inOvercast
8:55 AM55.4 °F53.6 °F94 %30.11 in10.0 miNNW (330°)12.7 mph16.1 mph0.01 inOvercast
9:15 AM57.2 °F53.6 °F88 %30.13 in10.0 miNNW (330°)6.9 mphOvercast
9:35 AM59.0 °F55.4 °F88 %30.13 in10.0 miNNW (330°)5.8 mphOvercast
9:55 AM59.0 °F55.4 °F88 %30.14 in10.0 miNNW (340°)6.9 mphOvercast
10:15 AM59.0 °F55.4 °F88 %30.15 in10.0 miNW (320°)10.4 mphOvercast
10:35 AM59.0 °F53.6 °F82 %30.15 in10.0 miNNW (340°)9.2 mphOvercast
10:55 AM57.2 °F51.8 °F82 %30.14 in10.0 miNNW (340°)5.8 mphOvercast
11:15 AM59.0 °F51.8 °F77 %30.15 in10.0 miCalm0.02 inMostly Cloudy
11:35 AM59.0 °F53.6 °F82 %30.14 in10.0 miNNW (330°)5.8 mph0.02 inOvercast
11:55 AM60.8 °F55.4 °F82 %30.14 in10.0 miWNW (300°)6.9 mph0.02 inOvercast
12:15 PM64.4 °F55.4 °F73 %30.13 in10.0 miNW (320°)4.6 mphScattered Clouds
12:35 PM64.4 °F55.4 °F73 %30.12 in10.0 miNNW (330°)9.2 mphScattered Clouds
12:55 PM66.2 °F53.6 °F64 %30.12 in10.0 miNW (320°)5.8 mphClear
1:15 PM66.2 °F53.6 °F64 %30.11 in10.0 miNW (320°)9.2 mphClear
1:35 PM68.0 °F51.8 °F56 %30.10 in10.0 miNW (310°)6.9 mphClear
1:55 PM69.8 °F51.8 °F53 %30.10 in10.0 miWNW (300°)10.4 mphClear
2:15 PM69.8 °F50.0 °F49 %30.09 in10.0 miNW (320°)8.1 mph16.1 mphClear
2:35 PM69.8 °F50.0 °F49 %30.10 in10.0 miWNW (290°)10.4 mph18.4 mphClear
2:55 PM69.8 °F46.4 °F43 %30.10 in10.0 miNW (310°)10.4 mph18.4 mphClear
3:15 PM69.8 °F42.8 °F38 %30.10 in10.0 miWNW (300°)8.1 mphClear
3:35 PM69.8 °F44.6 °F40 %30.10 in10.0 miNW (310°)11.5 mph16.1 mphClear
3:55 PM69.8 °F41.0 °F35 %30.11 in10.0 miNNW (330°)10.4 mph16.1 mphClear
4:15 PM68.0 °F37.4 °F33 %30.11 in10.0 miNW (310°)10.4 mph18.4 mphClear
4:35 PM68.0 °F39.2 °F35 %30.12 in10.0 miNNW (340°)10.4 mph17.3 mphClear
4:55 PM68.0 °F39.2 °F35 %30.12 in10.0 miNW (320°)9.2 mphClear
5:15 PM66.2 °F39.2 °F37 %30.12 in10.0 miNNW (330°)9.2 mphClear
5:35 PM64.4 °F41.0 °F42 %30.13 in10.0 miNW (320°)9.2 mphClear
5:55 PM60.8 °F41.0 °F48 %30.14 in10.0 miNNW (330°)5.8 mphClear
6:15 PM59.0 °F41.0 °F51 %30.14 in10.0 miNNW (340°)4.6 mphClear
6:35 PM59.0 °F42.8 °F55 %30.15 in10.0 miNNW (340°)4.6 mphClear
6:55 PM55.4 °F42.8 °F63 %30.15 in10.0 miCalmClear
7:15 PM53.6 °F46.4 °F77 %30.16 in10.0 miCalmClear
7:35 PM51.8 °F44.6 °F76 %30.16 in10.0 miCalmClear
7:55 PM50.0 °F42.8 °F76 %30.17 in10.0 miCalmClear
8:15 PM48.2 °F42.8 °F82 %30.19 in10.0 miWNW (290°)3.5 mphClear
8:35 PM50.0 °F41.0 °F71 %30.20 in10.0 miNNW (330°)3.5 mphClear
8:55 PM46.4 °F42.8 °F87 %30.20 in10.0 miCalmClear
9:15 PM46.4 °F41.0 °F81 %30.21 in10.0 miCalmClear
9:35 PM44.6 °F42.8 °F93 %30.21 in10.0 miCalmClear
9:55 PM44.6 °F44.6 °F100 %30.21 in10.0 miCalmClear
10:15 PM44.6 °F42.8 °F93 %30.21 in10.0 miCalmClear
10:35 PM42.8 °F41.0 °F93 %30.22 in10.0 miCalmClear
10:55 PM44.6 °F41.0 °F87 %30.22 in10.0 miCalmClear
11:15 PM42.8 °F39.2 °F87 %30.22 in10.0 miCalmClear
11:35 PM42.8 °F39.2 °F87 %30.22 in10.0 miCalmClear
11:55 PM42.8 °F39.2 °F87 %30.22 in10.0 miCalmClear
Hourly data recorded from KOBE, located miles away from Indian River, Florida







STORIES FROM OUR PARTNERS